Location: Pedimozza
(42.0500°N, 9.3500°E)
Time: 08:51:43
(UTC+00:00)

Cosmos 1869 Rocket - Pass Details

Date: 19 August 2019
Orbit: 606 x 632 km, 82.5° (Epoch: 23 September)

Event Time Altitude Azimuth Distance (km) Brightness Sun altitude
Rises 19:05:02 0° 183° (S) 2,848 6.7 -9.0°
Reaches altitude 10° 19:07:14 10° 182° (S) 1,948 5.9 -9.3°
Maximum altitude 19:11:31 78° 97° (E) 625 3.4 -10.0°
Drops below altitude 10° 19:15:52 10° 11° (N) 1,967 6.4 -10.8°
Sets 19:18:06 0° 10° (N) 2,878 7.2 -11.1°
